When you browse on this site, cookies collect data to enhance your experience and personalize the content and advertising you see.
Visit our Privacy Policy to learn more. By continuing to use the site, you agree to this use of cookies and data.

Hourly Weather Batina

Today, 13 July, Monday

Time Temperature Precipitation Wind Pressure Humidity
00:00 +26°C° 0 mm 2 mps 674 mmHg 41%
01:00 +25°C° 0 mm 1 mps 673 mmHg 44%
02:00 +24°C° 0 mm 1 mps 672 mmHg 46%
03:00 +24°C° 0 mm 1 mps 671 mmHg 48%
04:00 +25°C° 0 mm 1 mps 672 mmHg 45%
05:00 +26°C° 0 mm 1 mps 673 mmHg 42%
06:00 +27°C° 0 mm 2 mps 673 mmHg 39%
07:00 +28°C° 0 mm 2 mps 674 mmHg 35%
08:00 +30°C° 0 mm 2 mps 674 mmHg 32%
09:00 +31°C° 0 mm 2 mps 674 mmHg 28%
10:00 +34°C° 0 mm 3 mps 674 mmHg 25%
11:00 +35°C° 0 mm 5 mps 674 mmHg 22%
12:00 +38°C° 0 mm 6 mps 674 mmHg 19%
13:00 +35°C° 0.2 mm 6 mps 674 mmHg 25%
14:00 +33°C° 0.2 mm 6 mps 673 mmHg 31%
15:00 +30°C° 0.2 mm 6 mps 672 mmHg 36%
16:00 +27°C° 0.9 mm 6 mps 672 mmHg 46%
17:00 +24°C° 0.9 mm 6 mps 671 mmHg 55%
18:00 +22°C° 0.9 mm 6 mps 671 mmHg 64%
19:00 +22°C° 0 mm 5 mps 671 mmHg 59%
20:00 +24°C° 0 mm 3 mps 671 mmHg 54%
21:00 +24°C° 0 mm 1 mps 671 mmHg 50%
22:00 +24°C° 0 mm 1 mps 671 mmHg 51%
23:00 +23°C° 0 mm 1 mps 671 mmHg 52%

Tomorrow, 14 July, Tuesday

Time Temperature Precipitation Wind Pressure Humidity
00:00 +23°C° 0 mm 1 mps 671 mmHg 53%
01:00 +22°C° 0 mm 1 mps 671 mmHg 55%
02:00 +22°C° 0 mm 1 mps 670 mmHg 58%
03:00 +19°C° 0 mm 0 mps 670 mmHg 60%
04:00 +22°C° 0 mm 1 mps 670 mmHg 57%
05:00 +23°C° 0 mm 1 mps 671 mmHg 54%
06:00 +24°C° 0 mm 1 mps 671 mmHg 51%
07:00 +25°C° 0 mm 1 mps 671 mmHg 47%
08:00 +27°C° 0 mm 1 mps 672 mmHg 42%
09:00 +28°C° 0 mm 2 mps 672 mmHg 37%
10:00 +29°C° 0 mm 2 mps 672 mmHg 34%
11:00 +30°C° 0 mm 2 mps 672 mmHg 31%
12:00 +31°C° 0 mm 3 mps 672 mmHg 28%
13:00 +31°C° 0 mm 3 mps 672 mmHg 28%
14:00 +31°C° 0 mm 3 mps 671 mmHg 29%
15:00 +31°C° 0 mm 3 mps 671 mmHg 29%
16:00 +30°C° 0.4 mm 3 mps 671 mmHg 33%
17:00 +29°C° 0.4 mm 3 mps 670 mmHg 36%
18:00 +28°C° 0.4 mm 3 mps 670 mmHg 40%
19:00 +27°C° 0.1 mm 3 mps 670 mmHg 45%
20:00 +26°C° 0.1 mm 3 mps 670 mmHg 50%
21:00 +24°C° 0.1 mm 3 mps 670 mmHg 55%
22:00 +24°C° 0 mm 3 mps 670 mmHg 59%
23:00 +22°C° 0 mm 3 mps 670 mmHg 62%

Day after tomorrow, 15 July, Wednesday

Time Temperature Precipitation Wind Pressure Humidity
00:00 +21°C° 0 mm 3 mps 670 mmHg 66%
01:00 +21°C° 0 mm 2 mps 670 mmHg 67%
02:00 +21°C° 0 mm 2 mps 670 mmHg 68%
03:00 +21°C° 0 mm 1 mps 670 mmHg 69%
04:00 +22°C° 0 mm 1 mps 670 mmHg 64%
05:00 +23°C° 0 mm 1 mps 671 mmHg 59%
06:00 +24°C° 0 mm 1 mps 671 mmHg 54%
07:00 +26°C° 0 mm 1 mps 672 mmHg 47%
08:00 +28°C° 0 mm 2 mps 672 mmHg 40%
09:00 +29°C° 0 mm 2 mps 673 mmHg 33%
10:00 +31°C° 0 mm 3 mps 673 mmHg 30%
11:00 +33°C° 0 mm 4 mps 673 mmHg 26%
12:00 +35°C° 0 mm 4 mps 673 mmHg 23%
13:00 +35°C° 0 mm 5 mps 673 mmHg 21%
14:00 +35°C° 0 mm 5 mps 673 mmHg 20%
15:00 +35°C° 0 mm 5 mps 672 mmHg 19%
16:00 +35°C° 0 mm 5 mps 672 mmHg 22%
17:00 +34°C° 0 mm 5 mps 673 mmHg 25%
18:00 +33°C° 0 mm 4 mps 673 mmHg 28%
19:00 +30°C° 0 mm 4 mps 673 mmHg 36%
20:00 +28°C° 0 mm 3 mps 672 mmHg 44%
21:00 +26°C° 0 mm 2 mps 672 mmHg 53%
22:00 +26°C° 0 mm 2 mps 672 mmHg 54%
23:00 +25°C° 0 mm 2 mps 672 mmHg 54%

16 July, Thursday

Time Temperature Precipitation Wind Pressure Humidity
00:00 +25°C° 0 mm 2 mps 672 mmHg 55%
01:00 +24°C° 0 mm 2 mps 671 mmHg 57%
02:00 +24°C° 0 mm 1 mps 671 mmHg 59%
03:00 +23°C° 0 mm 1 mps 671 mmHg 61%
04:00 +24°C° 0 mm 1 mps 671 mmHg 57%
05:00 +25°C° 0 mm 1 mps 672 mmHg 54%
06:00 +26°C° 0 mm 1 mps 672 mmHg 50%
07:00 +27°C° 0 mm 2 mps 673 mmHg 44%
08:00 +29°C° 0 mm 3 mps 673 mmHg 37%
09:00 +31°C° 0 mm 3 mps 674 mmHg 31%
10:00 +34°C° 0 mm 4 mps 674 mmHg 28%
11:00 +35°C° 0 mm 5 mps 674 mmHg 25%
12:00 +36°C° 0 mm 6 mps 674 mmHg 22%
13:00 +36°C° 0 mm 6 mps 673 mmHg 21%
14:00 +38°C° 0 mm 7 mps 673 mmHg 21%
15:00 +38°C° 0 mm 7 mps 673 mmHg 21%
16:00 +35°C° 0 mm 6 mps 672 mmHg 26%
17:00 +34°C° 0 mm 5 mps 672 mmHg 31%
18:00 +32°C° 0 mm 4 mps 671 mmHg 36%
19:00 +30°C° 0 mm 4 mps 671 mmHg 42%
20:00 +28°C° 0 mm 4 mps 671 mmHg 48%
21:00 +26°C° 0 mm 3 mps 671 mmHg 55%
22:00 +25°C° 0 mm 3 mps 671 mmHg 57%
23:00 +24°C° 0 mm 3 mps 671 mmHg 59%

17 July, Friday

Time Temperature Precipitation Wind Pressure Humidity
00:00 +24°C° 0 mm 3 mps 670 mmHg 61%
01:00 +22°C° 0 mm 3 mps 670 mmHg 64%
02:00 +21°C° 0 mm 3 mps 670 mmHg 68%
03:00 +21°C° 0 mm 2 mps 670 mmHg 71%
04:00 +20°C° 0 mm 3 mps 670 mmHg 72%
05:00 +20°C° 0 mm 3 mps 670 mmHg 73%
06:00 +20°C° 0 mm 3 mps 671 mmHg 74%
07:00 +21°C° 0 mm 3 mps 671 mmHg 68%
08:00 +24°C° 0 mm 2 mps 671 mmHg 62%
09:00 +25°C° 0 mm 2 mps 672 mmHg 56%
10:00 +26°C° 0 mm 3 mps 672 mmHg 49%
11:00 +28°C° 0 mm 3 mps 672 mmHg 43%
12:00 +29°C° 0 mm 3 mps 672 mmHg 36%
13:00 +30°C° 0 mm 4 mps 672 mmHg 33%
14:00 +30°C° 0 mm 5 mps 672 mmHg 30%
15:00 +32°C° 0 mm 5 mps 672 mmHg 27%
16:00 +30°C° 0 mm 5 mps 672 mmHg 29%
17:00 +29°C° 0 mm 5 mps 671 mmHg 32%
18:00 +28°C° 0 mm 5 mps 671 mmHg 34%
19:00 +26°C° 0 mm 5 mps 671 mmHg 41%
20:00 +25°C° 0 mm 4 mps 671 mmHg 48%
21:00 +22°C° 0 mm 3 mps 671 mmHg 55%
22:00 +21°C° 0 mm 3 mps 671 mmHg 56%
23:00 +21°C° 0 mm 2 mps 671 mmHg 57%

18 July, Saturday

Time Temperature Precipitation Wind Pressure Humidity
00:00 +20°C° 0 mm 2 mps 671 mmHg 58%
01:00 +21°C° 0 mm 1 mps 671 mmHg 61%
02:00 +20°C° 0 mm 1 mps 670 mmHg 64%
03:00 +19°C° 0 mm 1 mps 670 mmHg 66%
04:00 +20°C° 0 mm 1 mps 670 mmHg 66%
05:00 +20°C° 0 mm 1 mps 671 mmHg 65%
06:00 +20°C° 0 mm 1 mps 671 mmHg 64%
07:00 +20°C° 0 mm 2 mps 671 mmHg 58%
08:00 +23°C° 0 mm 2 mps 672 mmHg 52%
09:00 +24°C° 0 mm 3 mps 672 mmHg 45%
10:00 +26°C° 0 mm 4 mps 672 mmHg 39%
11:00 +27°C° 0 mm 4 mps 672 mmHg 32%
12:00 +28°C° 0 mm 5 mps 673 mmHg 26%
13:00 +29°C° 0 mm 5 mps 672 mmHg 25%
14:00 +29°C° 0 mm 6 mps 672 mmHg 23%
15:00 +30°C° 0 mm 6 mps 672 mmHg 22%
16:00 +29°C° 0 mm 6 mps 672 mmHg 26%
17:00 +28°C° 0 mm 5 mps 671 mmHg 29%
18:00 +27°C° 0 mm 5 mps 671 mmHg 33%
19:00 +25°C° 0 mm 5 mps 671 mmHg 39%
20:00 +23°C° 0 mm 4 mps 671 mmHg 45%
21:00 +21°C° 0 mm 3 mps 671 mmHg 51%
22:00 +21°C° 0 mm 3 mps 671 mmHg 54%
23:00 +20°C° 0 mm 2 mps 671 mmHg 57%
Show more